IR1ZYZ-3 Weather Reports


Display with metric or nautical units.
time (UTC)temp
F
wind
direction
speed
MPH
gust
MPH
rain 1hr
in
rain 24hr
in
rain mn
in
humidity
%
barometer
mb
20260503195026 58 0.0 0.0 0.00 0.00 0.00 10 1019.7
20260503194022 57 0.0 0.0 0.00 0.00 0.00 10 1019.7
20260503193017 56 0.0 0.0 0.00 0.00 0.00 10 1019.6
20260503192013 56 0.0 0.0 0.00 0.00 0.00 10 1019.5
20260503191008 57 0.0 0.0 0.00 0.00 0.00 10 1019.4
20260503190004 58 0.0 0.0 0.00 0.00 0.00 10 1019.1
20260503184959 58 0.0 0.0 0.00 0.00 0.00 10 1019.1
20260503183954 58 0.0 0.0 0.00 0.00 0.00 96 1019.0
20260503182950 59 0.0 0.0 0.00 0.00 0.00 93 1019.0
20260503181945 59 0.0 0.0 0.00 0.00 0.00 91 1019.1
20260503180940 60 0.0 0.0 0.00 0.00 0.00 88 1019.1
20260503175935 60 0.0 0.0 0.00 0.00 0.00 85 1019.1
20260503174931 61 0.0 0.0 0.00 0.00 0.00 83 1019.0
20260503173926 61 0.0 0.0 0.00 0.00 0.00 81 1019.1
20260503172922 62 0.0 0.0 0.00 0.00 0.00 77 1019.0
20260503171918 62 0.0 0.0 0.00 0.00 0.00 77 1019.0
20260503170913 63 0.0 0.0 0.00 0.00 0.00 72 1019.0
20260503150818 73 0.0 0.0 0.00 0.00 0.00 49 1018.8
20260503130723 85 0.0 0.0 0.00 0.00 0.00 37 1019.2
20260503110620 81 0.0 0.0 0.00 0.00 0.00 42 1020.1
20260503081456 65 0.0 0.0 0.00 0.00 0.00 89 1021.5
20260503080451 66 0.0 0.0 0.00 0.00 0.00 89 1021.4
20260503072433 64 0.0 0.0 0.00 0.00 0.00 80 1021.1
20260503071428 64 0.0 0.0 0.00 0.00 0.00 85 1021.2
20260503070424 61 0.0 0.0 0.00 0.00 0.00 93 1021.5
20260503054811 56 0.0 0.0 0.00 0.00 0.00 10 1021.6
20260503053806 56 0.0 0.0 0.00 0.00 0.00 97 10.2
20260503052801 55 0.0 0.0 0.00 0.00 0.00 88 1021.6
20260503051757 55 0.0 0.0 0.00 0.00 0.00 82 1021.6
20260503050753 54 0.0 0.0 0.00 0.00 0.00 81 1021.6
20260503045748 53 0.0 0.0 0.00 0.00 0.00 10 1021.6
20260503044744 52 0.0 0.0 0.00 0.00 0.00 10 1021.7
20260503043739 51 0.0 0.0 0.00 0.00 0.00 10 1021.8
20260503042734 51 0.0 0.0 0.00 0.00 0.00 10 1021.8
20260503041730 51 0.0 0.0 0.00 0.00 0.00 98 1021.7
20260503040725 50 0.0 0.0 0.00 0.00 0.00 95 1021.8
20260503035720 50 0.0 0.0 0.00 0.00 0.00 92 1021.8
20260503034714 50 0.0 0.0 0.00 0.00 0.00 89 1021.8
20260503033709 49 0.0 0.0 0.00 0.00 0.00 88 1021.9
20260503032705 50 0.0 0.0 0.00 0.00 0.00 85 1021.8
20260503031700 50 0.0 0.0 0.00 0.00 0.00 82 1021.9
20260503030656 50 0.0 0.0 0.00 0.00 0.00 79 1021.8
20260503025651 50 0.0 0.0 0.00 0.00 0.00 74 1021.9
20260503024646 51 0.0 0.0 0.00 0.00 0.00 70 1021.9
20260503023640 50 0.0 0.0 0.00 0.00 0.00 66 1021.9
20260503022636 50 0.0 0.0 0.00 0.00 0.00 67 1022.0
20260503021631 51 0.0 0.0 0.00 0.00 0.00 61 1022.1
20260503020627 51 0.0 0.0 0.00 0.00 0.00 59 1022.0
20260503015622 51 0.0 0.0 0.00 0.00 0.00 59 1021.9
20260503014617 52 0.0 0.0 0.00 0.00 0.00 53 1022.0
20260503013613 53 0.0 0.0 0.00 0.00 0.00 51 1021.9
20260503012608 55 0.0 0.0 0.00 0.00 0.00 46 1021.8
20260503011603 56 0.0 0.0 0.00 0.00 0.00 45 1021.8
20260503010559 53 0.0 0.0 0.00 0.00 0.00 49 1022.0
20260503005553 55 0.0 0.0 0.00 0.00 0.00 47 1021.9
20260503004548 53 0.0 0.0 0.00 0.00 0.00 51 1022.1
20260503003543 54 0.0 0.0 0.00 0.00 0.00 50 1022.1
20260503002538 55 0.0 0.0 0.00 0.00 0.00 47 1022.2
20260503001534 56 0.0 0.0 0.00 0.00 0.00 46 1022.2
20260503000529 54 0.0 0.0 0.00 0.00 0.00 50 1022.4
20260502235525 54 0.0 0.0 0.00 0.00 0.00 51 1022.4
20260502234520 55 0.0 0.0 0.00 0.00 0.00 50 1022.4
20260502233516 55 0.0 0.0 0.00 0.00 0.00 49 1022.5
20260502232511 55 0.0 0.0 0.00 0.00 0.00 50 1022.5
20260502231506 54 0.0 0.0 0.00 0.00 0.00 54 1022.7
20260502230502 54 0.0 0.0 0.00 0.00 0.00 51 1022.7
20260502225457 56 0.0 0.0 0.00 0.00 0.00 48 1022.7
20260502224453 57 0.0 0.0 0.00 0.00 0.00 45 1022.7
20260502223448 57 0.0 0.0 0.00 0.00 0.00 44 1022.7
20260502222436 57 0.0 0.0 0.00 0.00 0.00 43 1022.7
20260502221432 57 0.0 0.0 0.00 0.00 0.00 44 1022.7
20260502220427 57 0.0 0.0 0.00 0.00 0.00 44 1022.8
20260502215422 57 0.0 0.0 0.00 0.00 0.00 45 1022.8
20260502214417 57 0.0 0.0 0.00 0.00 0.00 44 1022.8
20260502213413 57 0.0 0.0 0.00 0.00 0.00 45 1022.9
20260502212408 57 0.0 0.0 0.00 0.00 0.00 46 1022.9
20260502211403 57 0.0 0.0 0.00 0.00 0.00 45 1022.9
20260502210359 57 0.0 0.0 0.00 0.00 0.00 46 1023.0
20260502205355 57 0.0 0.0 0.00 0.00 0.00 46 1023.0
20260502204351 57 0.0 0.0 0.00 0.00 0.00 48 1023.1
20260502203346 57 0.0 0.0 0.00 0.00 0.00 51 1023.1
20260502202341 57 0.0 0.0 0.00 0.00 0.00 55 1023.2
20260502201337 57 0.0 0.0 0.00 0.00 0.00 56 1023.3
20260502200332 57 0.0 0.0 0.00 0.00 0.00 57 1023.2
20260502195328 55 0.0 0.0 0.00 0.00 0.00 63 1023.2